User: anonymous   Login
Location: Newark
(34.6283°N, 36.0776°E)
Time: 18:08:03
(UTC+00:00)
Language:

Vanguard 2 - Orbit

View from above orbital plane
View from above orbital plane
View from above satellite
View from above satellite

Ground track
Ground track

The orbit data is extracted from the following two-line orbital elements,

1    11U 59001A   19287.36787854  .00000157  00000-0  68680-4 0  9997
2    11  32.8758 263.0508 1466951 296.6262  49.1485 11.85613805587386
Epoch (UTC): 14 October 2019 08:49:44
Eccentricity: 0.1466951
inclination: 32.8758°
perigee height: 554 km
apogee height: 2937 km
right ascension of ascending node: 263.0508°
argument of perigee: 296.6262°
revolutions per day: 11.85613805
mean anomaly at epoch: 49.1485°
orbit number at epoch: 58738

The dashed part of the orbit path shows where the satellite is in the earth's shadow,  

DLR